Regional Weather Roundup
Issued by NWS

Home | Current Version | Previous Version | Text Only | Print | Product List | Glossary Off
Versions: 1 2 3 4 5 6 7 8 9 10 11 12 13 14 15 16 17 18 19 20 21 22 23 24 25 26 27 28 29 30 31 32 33 34 35 36 37 38 39 40 41 42 43 44 45 46 47 48 49 50

000
ASUS45 KABQ 261810
RWRNM
WEATHER ROUNDUP FOR NEW MEXICO
NATIONAL WEATHER SERVICE ALBUQUERQUE NM
1200 PM MDT SAT JUL 26 2014

NOTE: "FAIR" MEANS FEW OR NO CLOUDS BELOW 12,000 FEET AGL WITH NO
       SIGNIFICANT WEATHER OR OBSTRUCTIONS TO VISION.

      THIS PRODUCT IS RELEASED AS TWO VERSIONS.  ONE VERSION NEAR
      THE TOP OF THE HOUR CONTAINING PRELIMINARY DATA FROM ALBUQUERQUE
      AND OTHER STATIONS.  A FINAL VERSION WITH ADDITIONAL DATA IS
      ISSUED ABOUT 10 MINUTES AFTER THE HOUR.

NMZ501-503-504-510>518-261900-
NORTHWEST PLATEAU/NORTHCENTRAL MOUNTAINS

CITY           SKY/WX    TMP DP  RH WIND       PRES   REMARKS
FARMINGTON     SUNNY     92  44  19 W8        30.21F
6HR MIN TEMP:  63; 6HR MAX TEMP:  92;

LOS ALAMOS     SUNNY     83  45  26 NE7G16    30.35S
SANTA FE       SUNNY     90  45  21 N13       30.25F
6HR MIN TEMP:  64; 6HR MAX TEMP:  90;

TAOS           SUNNY     84  43  23 N10       30.35F
ANGEL FIRE     FAIR      80  43  27 SW10G18   30.44S

$$
NMZ402-403-502-505>509-261900-
WESTCENTRAL MOUNTAINS/SOUTHWEST MOUNTAINS

CITY           SKY/WX    TMP DP  RH WIND       PRES   REMARKS
GALLUP         SUNNY     87  45  23 VRB3      30.31F
6HR MIN TEMP:  58; 6HR MAX TEMP:  88;

GRANTS         SUNNY     87  42  20 N9        30.32S
SILVER CITY    SUNNY     93  41  16 NE6       30.19F

$$
NMZ407-409-411-412-261900-
SOUTHERN DESERTS

CITY           SKY/WX    TMP DP  RH WIND       PRES   REMARKS
LORDSBURG      FAIR      90  55  31 W8G18     30.11F
DEMING         SUNNY     93  50  23 S6        30.09F
6HR MIN TEMP:  70; 6HR MAX TEMP:  94;

LAS CRUCES     SUNNY     94  44  18 SE7       30.11F
HOLLOMAN AFB   MOSUNNY   94  46  19 VRB6      30.06F
ALAMOGORDO     SUNNY     93  45  18 SW6       30.08F
T OR C         SUNNY     96  46  18 MISG      30.12F
6HR MIN TEMP:  76; 6HR MAX TEMP:  96;


$$
NMZ519>523-261900-
CENTRAL VALLEYS/CENTRAL HIGHLANDS

CITY           SKY/WX    TMP DP  RH WIND       PRES   REMARKS
ALBUQUERQUE    MOSUNNY   90  47  22 N7        30.19F
6HR MIN TEMP:  70; 6HR MAX TEMP:  90;

DOUBLE EAGLE   SUNNY     88  48  25 VRB6      30.24F
MORIARTY ARPT  FAIR      89  47  23 NW8       30.26S
6HR MIN TEMP:  51; 6HR MAX TEMP:  89;

CLINES CORNERS SUNNY     89  42  19 NW10G20   30.30F
6HR MIN TEMP:  64; 6HR MAX TEMP:  89;

BELEN          FAIR      90  46  22 NW9       30.18S
6HR MIN TEMP:  70; 6HR MAX TEMP:  90;

SOCORRO        FAIR      95  43  16 NE13      30.14F
6HR MIN TEMP:  70; 6HR MAX TEMP:  95;


$$
NMZ524>526-539-540-261900-
SOUTHCENTRAL MOUNTAINS

CITY           SKY/WX    TMP DP  RH WIND       PRES   REMARKS
RUIDOSO        SUNNY     86  39  19 SE9G17    30.31F

$$
NMZ527>531-261900-
NORTHEAST HIGHLANDS/NORTHEAST PLAINS

CITY           SKY/WX    TMP DP  RH WIND       PRES   REMARKS
LAS VEGAS      SUNNY     91  40  16 NW9       30.28F
6HR MIN TEMP:  57; 6HR MAX TEMP:  91;

RATON          SUNNY     93  36  13 N10G18    30.21F
6HR MIN TEMP:  59; 6HR MAX TEMP:  95;

CLAYTON        SUNNY     96  50  20 NE13      30.12S
6HR MIN TEMP:  68; 6HR MAX TEMP:  96;


$$
NMZ532>537-261900-
EASTCENTRAL PLAINS

CITY           SKY/WX    TMP DP  RH WIND       PRES   REMARKS
TUCUMCARI      SUNNY     95  52  23 W8        30.05F
6HR MIN TEMP:  76; 6HR MAX TEMP:  95;

CANNON AFB     SUNNY     93  55  27 SW9       30.10F
6HR MIN TEMP:  68; 6HR MAX TEMP:  93;

CLOVIS AIRPORT NOT AVBL

$$
NMZ028-029-538-261900-
SOUTHEAST PLAINS

CITY           SKY/WX    TMP DP  RH WIND       PRES   REMARKS
ROSWELL        SUNNY     96  53  23 VRB3      30.03F
6HR MIN TEMP:  70; 6HR MAX TEMP:  96;

ARTESIA        SUNNY     93  55  27 SE12G17   30.03F
CARLSBAD       SUNNY     95  55  26 SE14      30.02F
6HR MIN TEMP:  70; 6HR MAX TEMP:  96;

HOBBS          SUNNY     91  46  21 SE6       30.08F


$$



USA.gov is the U.S. government's official web portal to all federal, state and local government web resources and services.